STARLINK-34098 (64080 NORAD) Tracking and Keplerian Element Data

This shows tracking and keplerian element data for the satellite.

Feedback or suggestion? Click here.




ElementValue
Catalog64080
NameSTARLINK-34098
Epoch Orbit3396
Epoch Day354.18604123
Epoch Year2025
RAAN290.3465
Inclination43.0013
Eccentricity0.000163
Argument of Perigee267.7363
Mean Anonmoly92.3302
Mean Motion15.27588612
Decay Rate0.00015215
L11 64080U 25107S 25354.18604123 .00015215 00000+0 56113-3 0 9999
L22 64080 43.0013 290.3465 0001630 267.7363 92.3302 15.27588612 33969



Live tracking and technical data element details for STARLINK-34098 (NORAD 64080). STARLINK-34098 can be tracked NOW for your location showing map with azimuth and elevation plus other details from your city location.







IsCatalogInMostPopularTable: catalog: 64080, numindb: 6
Update: records affected: 1



GetName: 64080 STARLINK-34098

Hit Count: updated at: Thu, 16 Apr 2026 05:31:44 GMT